Wind_Speed
27 26 25 25 24 24 24 25 25 23 22 21 20 20 21 22 21 19 16 15 15 14 14 13 12 13 15 16 16 17 17 17 16 17 17 13 12 14 16 14 14 14 14 12 10 9 9 9 8 7 5 4 4 4 4 5 7 9 9 10 14 19 25 32 35 37 36 32 34 40 40 34 33 35 36 36 35 33 31 29 28 29 29 26 25 24 24
29 27 26 26 26 25 25 25 25 24 23 22 21 21 21 21 21 19 17 16 16 14 13 13 13 14 15 17 18 18 17 17 16 17 16 14 13 15 17 18 17 17 16 14 11 10 10 10 9 10 9 8 7 7 7 7 8 10 10 10 12 15 21 28 33 37 38 35 35 40 40 38 38 37 35 36 36 34 33 32 30 31 31 30 27 26 26
29 28 27 27 27 27 26 26 26 25 24 23 23 22 21 21 21 19 17 18 17 15 14 13 13 14 14 15 17 18 17 16 16 17 15 13 13 14 17 19 19 19 19 17 15 13 11 10 10 10 11 12 11 11 11 11 11 11 11 12 12 14 19 24 29 34 38 38 38 41 42 40 41 41 38 37 37 35 34 34 33 31 32 32 30 28 27
30 29 28 28 28 28 27 27 26 26 25 24 24 23 21 20 20 19 18 19 19 16 16 14 13 13 13 15 17 17 17 16 16 15 13 13 15 14 15 18 18 20 22 21 18 15 11 10 12 11 11 12 12 14 16 16 15 14 14 14 13 14 17 22 27 32 36 38 38 41 45 45 43 44 42 39 38 37 35 35 35 34 33 33 33 32 28
30 30 29 29 29 29 28 27 27 26 26 25 24 23 22 20 19 19 20 21 20 18 17 16 15 14 14 15 16 16 17 17 16 14 13 14 17 16 15 15 16 19 22 22 21 18 13 12 13 13 12 12 13 15 17 19 18 16 16 16 15 15 15 19 25 29 33 36 36 37 44 47 46 45 44 40 39 39 38 38 38 37 35 34 35 35 31
31 31 30 30 30 30 29 28 27 27 26 25 24 23 22 20 19 20 21 21 21 20 19 18 17 17 16 17 17 17 18 18 16 15 14 15 18 18 16 15 15 17 20 21 20 18 15 13 12 13 12 12 13 14 17 20 20 16 16 17 17 16 15 17 21 26 29 32 33 34 40 46 46 45 44 43 41 40 40 40 39 39 38 35 35 38 35
33 32 32 32 31 31 30 30 29 28 27 25 24 23 23 22 21 21 22 22 23 23 22 19 19 20 19 18 18 19 21 20 19 17 16 16 18 17 16 17 16 16 17 17 17 17 14 11 12 12 12 11 12 13 14 16 16 14 15 17 16 15 16 16 18 22 25 28 30 31 34 40 45 45 44 44 44 43 42 42 41 40 39 36 35 37 39
34 34 33 33 32 32 32 31 30 29 28 26 24 23 23 23 23 22 22 23 24 25 24 21 21 23 22 19 20 21 21 22 22 21 19 18 18 18 17 19 19 17 16 17 17 16 13 11 11 12 11 11 11 10 10 10 9 12 14 14 12 12 14 16 17 18 21 24 27 28 27 31 39 45 44 44 46 45 44 44 42 40 39 37 34 35 38
35 35 34 33 33 32 32 31 30 29 27 26 25 24 24 24 24 24 23 24 25 26 26 24 24 25 24 21 22 22 21 22 23 21 20 19 19 19 19 21 22 19 18 18 18 16 13 11 12 11 10 11 12 10 8 7 6 9 11 11 12 13 14 16 17 18 19 21 23 25 25 25 31 40 45 44 46 47 45 44 43 40 38 38 36 34 37
36 35 34 34 33 32 32 31 30 28 27 26 25 25 25 25 24 25 24 24 25 26 27 26 26 26 25 24 24 22 22 23 23 21 19 19 20 20 20 21 22 21 21 21 19 15 13 13 13 11 10 12 12 11 9 6 5 6 9 11 12 12 14 14 15 17 20 20 20 21 22 23 25 32 41 45 46 46 45 44 43 41 39 39 38 36 37
36 36 35 34 33 32 31 31 30 29 27 25 24 25 26 25 25 24 24 24 25 26 27 28 27 27 26 26 25 23 23 23 23 22 20 19 20 21 21 20 20 20 21 22 19 14 13 15 14 11 11 12 13 13 12 9 8 7 9 11 11 10 12 13 13 15 19 21 20 19 19 20 22 26 34 43 47 46 44 43 43 42 40 40 39 38 37
34 34 34 34 34 32 32 31 31 30 29 27 25 25 26 26 25 25 24 23 25 26 28 29 28 27 27 27 26 25 24 23 23 23 22 20 21 22 21 19 17 17 18 20 18 14 15 16 15 12 11 11 12 13 12 12 11 9 10 12 11 10 11 11 12 14 17 20 21 20 18 17 19 23 28 38 46 49 45 43 43 43 42 41 40 38 38
33 33 33 33 33 32 32 32 32 32 31 29 28 26 26 26 25 25 24 23 25 26 28 29 30 28 28 27 27 27 26 24 23 24 24 23 23 23 21 18 16 15 16 16 16 16 16 16 14 13 12 11 11 11 12 13 12 11 12 12 12 11 11 10 11 13 16 19 21 21 19 17 18 22 24 30 41 49 48 43 43 43 42 42 41 39 38
34 34 33 32 32 31 31 31 32 32 32 31 30 27 27 27 26 25 24 24 25 27 28 29 30 29 28 28 28 29 28 25 26 27 27 26 26 24 21 18 17 16 15 15 16 16 16 16 15 14 12 11 10 10 11 12 12 12 13 12 12 11 10 10 11 12 15 19 20 20 19 18 19 21 22 23 32 44 49 45 43 43 43 42 42 41 39
36 35 34 34 33 31 31 31 32 32 32 32 30 28 27 27 26 25 25 24 25 28 29 30 30 30 29 28 30 31 30 28 29 30 30 30 28 25 20 17 16 16 15 15 17 17 16 17 17 15 13 11 10 9 9 10 11 11 11 11 10 9 9 10 11 12 15 18 19 19 18 17 18 20 20 20 24 35 46 48 45 44 44 43 43 43 42
36 35 35 34 34 33 32 32 32 32 32 32 30 28 27 27 27 26 25 25 25 28 30 30 30 31 30 29 31 33 33 32 31 31 32 32 30 26 21 16 15 15 14 15 19 19 18 18 17 15 13 12 10 9 10 11 10 9 9 9 9 8 8 9 11 12 14 16 18 18 17 16 17 17 18 19 21 27 40 49 48 45 44 44 44 44 44
35 35 35 35 34 34 33 33 33 32 32 32 31 29 28 28 28 27 27 27 27 29 32 31 30 31 30 30 33 35 35 34 33 32 34 34 32 30 25 19 16 16 14 14 18 20 20 19 17 15 14 13 11 9 10 10 10 9 8 9 9 8 8 10 11 12 12 14 16 18 17 15 16 17 17 18 18 21 31 44 49 46 44 43 43 44 45
33 33 33 33 33 33 33 33 32 32 32 32 31 29 28 29 29 29 29 29 29 31 34 33 31 32 31 32 35 36 37 36 35 34 35 36 36 33 27 20 18 17 17 16 18 21 21 19 16 15 14 13 12 11 9 9 10 10 9 9 9 9 9 10 11 10 10 11 13 15 16 15 15 16 16 16 16 17 23 35 45 46 44 43 42 42 43
32 32 32 32 32 32 31 31 31 32 32 32 32 31 29 30 31 30 30 30 29 32 35 34 32 32 32 33 35 37 38 37 36 36 36 37 38 36 29 23 20 18 18 18 18 20 21 19 17 16 15 14 14 12 10 9 10 10 9 8 9 9 8 9 9 8 8 9 10 11 14 14 14 14 14 13 15 16 18 25 36 43 44 43 41 40 40
32 32 31 31 31 31 30 30 30 31 32 32 33 32 30 30 31 31 30 29 28 31 35 34 32 32 32 32 36 38 38 37 37 37 38 39 39 37 31 25 22 21 20 18 17 19 21 20 18 16 15 15 14 13 11 10 10 10 9 8 8 8 7 8 8 8 7 7 8 10 12 14 14 14 13 13 13 15 17 20 26 34 40 43 43 41 40
32 32 32 31 31 30 29 30 30 30 31 33 34 34 31 30 30 29 28 27 27 30 33 33 32 32 31 32 36 38 39 38 37 37 38 40 39 36 30 25 23 23 22 18 16 18 19 18 17 16 15 15 14 13 12 11 10 10 9 9 8 8 7 7 8 8 8 8 9 11 13 14 14 14 13 12 12 13 16 18 21 24 30 35 39 39 37
32 32 32 31 31 30 29 29 30 30 31 33 34 34 31 29 27 27 27 27 27 28 31 32 32 32 31 32 35 39 40 38 35 35 38 40 40 35 30 26 25 25 23 20 17 17 17 16 16 16 16 16 16 15 13 12 11 10 9 8 8 7 7 7 7 8 8 9 10 12 13 14 15 14 13 12 11 12 13 15 18 20 22 25 27 29 29
31 31 31 31 30 29 29 29 30 30 31 32 33 32 30 28 26 26 27 26 26 27 29 31 31 31 30 32 36 38 39 36 34 35 38 40 39 34 28 26 27 27 26 22 19 18 18 17 16 17 17 16 16 16 14 12 11 10 9 8 8 8 7 6 7 8 8 9 9 11 12 14 14 14 13 12 11 12 12 12 14 17 18 19 21 22 24
31 31 30 30 29 29 29 29 30 30 31 31 31 30 29 28 26 25 25 25 24 25 27 29 30 31 31 33 35 36 37 35 34 35 36 36 36 33 28 26 28 29 28 24 20 20 20 19 18 18 18 17 16 16 14 13 12 11 9 9 9 8 7 6 6 7 8 8 8 9 10 12 14 14 13 13 12 12 11 10 11 12 14 15 16 18 20
30 30 29 29 29 29 29 29 30 30 30 29 29 28 28 28 26 24 24 22 22 24 26 27 29 30 31 32 34 35 36 35 33 33 33 34 34 33 30 29 29 30 29 25 21 21 22 21 19 19 18 17 17 16 15 14 13 11 10 9 8 8 8 7 6 6 7 8 9 9 10 11 13 14 14 14 13 12 11 10 9 9 11 12 12 13 14
29 29 29 29 29 29 29 29 29 28 28 27 27 27 28 27 25 23 22 20 20 22 24 26 29 30 30 31 33 35 35 34 32 32 32 32 32 31 30 30 30 31 30 27 22 22 23 23 21 19 18 18 18 17 16 15 14 12 10 8 8 8 9 8 7 7 7 7 8 9 9 10 11 13 13 14 13 12 11 10 10 9 9 9 9 9 10
29 29 29 29 29 28 28 28 27 26 26 26 26 26 27 26 24 23 21 20 20 20 22 25 29 29 28 30 33 34 34 33 31 31 32 32 31 30 30 31 31 31 31 28 25 23 24 23 21 19 19 19 19 18 18 16 15 13 10 8 8 8 9 9 8 8 7 6 6 7 7 7 9 11 12 13 12 12 11 11 11 10 10 9 8 8 8
28 28 29 29 28 28 27 26 25 25 25 25 25 25 25 24 23 22 21 19 19 20 21 25 28 27 27 30 33 34 34 33 31 30 32 32 31 31 32 33 33 32 31 29 26 24 24 24 22 21 20 20 19 19 18 16 15 13 10 9 9 8 8 8 9 8 8 8 8 8 6 6 8 10 11 11 11 12 12 12 11 11 10 9 8 8 7
28 28 28 28 27 27 26 25 24 24 24 25 25 24 24 23 22 21 20 19 18 19 21 25 28 26 27 30 32 33 34 34 32 30 32 32 32 32 33 33 32 33 31 29 26 25 24 23 23 22 22 20 19 18 18 17 15 13 10 10 10 9 8 8 8 8 9 10 9 9 8 7 8 9 9 10 11 11 11 11 11 11 10 9 9 8 7
27 27 27 27 26 26 24 23 23 23 24 24 24 24 23 22 21 21 20 19 18 19 21 24 26 26 26 29 32 33 34 34 32 30 31 32 32 34 35 34 33 33 32 29 27 27 26 25 23 23 22 20 19 19 18 17 16 14 12 12 12 10 10 9 8 8 9 10 10 10 9 9 8 8 9 9 10 10 10 10 10 10 10 9 9 8 7
26 26 26 26 25 24 22 22 23 24 24 24 24 23 22 21 21 20 20 19 19 18 19 21 24 26 27 29 31 33 33 33 32 31 32 32 33 35 36 35 34 33 31 29 29 28 27 26 26 25 23 21 20 20 19 18 17 15 15 14 13 12 11 10 9 9 10 10 11 12 11 11 10 9 8 8 9 9 9 9 9 9 9 8 8 8 7
25 25 25 25 24 22 22 22 23 23 24 24 23 22 22 21 21 20 20 19 18 17 17 19 23 26 27 28 30 31 33 33 33 32 32 33 34 35 35 33 33 32 30 29 29 28 27 28 29 28 26 23 22 21 20 18 18 17 16 16 15 13 12 11 10 10 10 10 12 13 13 13 11 10 8 8 9 9 9 9 9 8 8 8 7 7 6
25 25 25 24 23 22 22 22 22 23 23 23 22 21 21 21 21 20 20 20 18 17 17 18 20 24 26 27 29 30 31 32 32 31 31 33 34 34 33 32 31 31 29 28 28 28 28 28 30 30 29 26 24 22 21 19 19 19 18 17 16 15 14 12 10 10 11 11 12 13 14 13 12 11 10 10 9 9 9 9 9 8 8 8 7 7 7
25 25 24 23 22 22 22 22 22 22 22 21 20 21 21 21 20 20 20 20 18 18 18 18 20 23 25 26 28 30 31 31 31 31 32 34 34 32 32 32 31 29 27 26 26 27 27 27 29 31 30 28 26 24 22 20 20 20 20 19 18 17 15 12 11 10 11 11 12 13 14 14 14 13 13 12 11 10 10 10 9 9 9 8 8 8 8
24 24 23 23 22 21 21 21 21 21 21 20 20 20 21 20 20 20 19 19 18 18 18 18 20 23 25 26 28 31 31 30 29 28 30 32 30 28 30 30 28 26 25 25 25 26 26 26 28 30 29 28 27 25 23 21 21 22 21 21 20 18 16 13 11 11 11 11 11 12 13 14 14 14 14 13 12 12 11 11 11 10 10 9 9 9 10
24 23 23 22 21 21 21 21 21 20 20 19 20 20 20 19 19 18 18 16 16 17 18 19 20 23 24 26 28 31 30 29 28 26 26 27 26 25 27 27 24 23 23 23 24 26 26 24 26 29 29 27 26 24 23 23 22 22 22 22 20 18 16 14 13 12 11 11 11 12 13 14 14 14 15 14 14 13 13 12 11 11 10 10 11 11 12
23 22 22 21 21 21 21 21 20 20 19 19 19 20 19 19 18 17 16 15 15 16 17 18 21 23 24 26 27 28 28 28 28 27 26 25 24 25 26 25 23 24 24 23 24 26 25 24 26 28 27 26 26 26 25 24 22 22 22 22 20 19 17 16 14 13 11 11 12 13 14 14 14 14 14 14 14 13 12 12 11 11 11 12 13 13 14
22 21 21 21 21 21 21 20 20 19 20 20 19 19 19 19 18 17 16 16 16 17 17 19 21 23 24 25 27 27 27 28 29 28 27 26 25 25 26 26 25 25 26 25 25 25 25 24 25 26 26 27 27 27 26 24 22 22 22 22 21 19 18 16 15 13 12 12 12 13 13 14 14 14 14 14 13 13 13 13 12 12 13 14 15 15 15
21 21 20 21 20 20 20 20 20 20 20 20 20 20 20 19 19 19 18 18 19 19 20 21 22 23 23 25 27 28 28 29 29 28 28 27 26 26 27 28 26 25 24 23 23 24 24 24 24 25 25 26 27 26 25 24 23 23 23 22 21 20 18 17 15 14 13 13 13 13 14 14 14 14 14 14 14 14 14 15 14 14 15 16 16 16 16
20 20 20 20 20 19 19 19 20 20 20 21 20 20 20 21 21 21 21 21 21 21 21 22 24 25 25 27 29 29 29 30 30 28 27 28 27 27 28 28 27 25 24 23 23 23 23 23 23 23 23 24 26 26 25 25 24 23 23 23 22 20 19 18 16 14 14 13 13 14 15 15 15 14 14 15 15 15 16 16 16 17 18 18 18 18 18
20 20 20 19 18 18 19 19 20 20 21 21 21 20 21 22 22 23 23 23 24 24 23 24 26 27 27 28 30 30 29 30 29 27 26 27 28 28 29 29 26 24 24 24 23 23 23 23 22 21 21 23 25 27 26 25 24 23 23 22 22 21 20 18 16 15 14 14 14 15 15 15 15 14 15 15 16 16 17 18 18 19 20 20 20 20 21
20 19 18 18 17 18 19 20 20 20 21 21 21 21 21 22 23 23 24 24 24 24 24 24 26 27 28 29 30 30 30 30 29 27 26 27 29 30 32 31 26 23 23 23 22 23 23 21 18 18 20 23 26 27 26 25 23 22 22 22 22 21 20 18 16 16 15 15 15 15 16 16 15 15 15 16 17 17 18 19 20 21 21 22 22 24 24
18 18 17 17 18 19 19 20 20 20 20 20 20 21 21 22 22 22 23 23 22 22 22 23 24 25 25 26 28 29 30 29 27 26 26 28 30 31 32 30 25 23 22 22 22 21 20 17 15 17 21 25 27 27 26 24 23 22 22 21 21 20 19 18 17 16 16 16 16 16 16 16 16 16 16 17 18 19 20 21 21 22 23 24 25 25 26
17 16 16 17 18 19 19 19 19 18 18 19 20 20 21 21 20 20 20 20 19 19 20 20 20 20 21 22 25 27 27 26 25 25 25 27 29 30 28 26 25 23 22 22 21 20 18 16 17 20 23 25 25 25 25 24 23 22 21 20 20 19 18 18 17 17 16 16 16 16 16 16 16 17 17 18 18 19 21 22 23 24 25 25 26 26 26
16 16 16 17 18 18 18 18 18 18 18 19 19 19 19 18 17 17 16 15 14 13 13 13 14 16 18 20 22 24 24 24 26 26 25 26 28 27 24 23 24 23 22 22 20 18 16 17 19 22 23 23 22 23 23 23 23 22 20 19 19 18 18 18 17 16 16 15 15 16 16 17 17 18 18 18 19 20 21 22 23 24 25 25 25 26 27
16 15 16 17 17 18 17 17 17 17 17 16 16 15 14 13 13 13 12 11 10 10 10 9 9 11 13 15 18 21 22 24 27 27 26 26 26 25 21 20 21 21 21 20 18 16 17 19 22 22 22 21 21 22 22 23 22 21 19 18 18 18 17 16 16 15 15 15 16 17 18 18 18 18 18 18 19 20 21 22 23 23 24 25 26 27 28
15 15 15 16 16 17 16 15 14 13 13 12 11 10 9 8 8 9 10 10 10 9 9 8 8 8 10 11 14 18 22 26 29 29 27 26 25 22 19 17 18 19 19 18 17 18 20 21 21 21 21 20 20 20 21 21 20 19 18 18 17 17 16 15 15 15 15 16 16 17 17 17 17 18 18 19 20 21 21 22 23 24 25 26 27 28 29
15 15 15 15 15 15 13 11 11 11 10 10 9 9 9 11 12 12 10 9 10 10 9 8 8 9 10 11 13 17 21 25 28 29 27 25 23 20 17 15 15 16 18 19 20 21 21 20 18 19 19 19 19 19 20 20 20 19 18 17 17 16 15 15 15 15 15 16 16 16 16 17 17 19 20 21 21 22 23 24 25 26 27 28 28 29 30
15 15 15 14 13 12 11 10 11 11 10 10 11 12 14 15 15 13 11 11 11 11 11 10 11 12 12 12 12 15 19 23 25 27 26 23 20 17 15 14 14 16 18 20 21 21 20 18 17 17 18 18 19 19 20 19 19 19 18 17 16 15 15 14 14 14 15 15 16 16 16 17 19 20 21 22 23 24 24 25 26 27 28 28 29 29 30
15 14 13 12 11 11 11 11 11 11 11 12 14 16 17 16 14 13 12 13 13 12 12 11 12 13 13 12 12 15 18 22 23 24 24 21 18 16 14 14 15 17 18 19 19 19 19 19 18 18 18 19 19 20 19 19 19 18 17 16 15 14 13 13 14 14 15 15 15 16 17 19 21 22 22 23 24 24 25 26 27 27 28 28 29 30 31
15 14 12 11 11 11 12 12 12 13 14 14 15 17 18 17 15 13 12 12 13 13 13 12 12 12 13 13 12 14 17 19 20 20 20 18 16 15 15 16 17 18 18 18 18 19 19 19 19 18 18 19 19 19 19 18 18 17 16 16 14 14 13 13 13 13 14 15 16 18 19 21 22 22 23 23 24 25 26 26 27 27 28 29 30 31 31
14 13 12 11 11 12 12 12 12 15 16 16 15 16 17 16 14 13 12 12 13 14 14 13 13 14 15 14 14 14 15 16 16 17 17 16 16 16 18 19 19 18 18 18 18 18 18 18 18 18 18 18 18 18 18 17 17 17 16 15 14 13 13 12 13 13 15 17 19 20 21 22 22 23 23 24 25 26 26 26 27 28 29 30 30 31 32
Wind_Direction
297 294 293 294 295 298 301 303 304 305 305 306 306 306 305 305 306 310 313 310 306 308 310 310 309 302 298 296 286 278 280 286 290 290 283 268 255 259 263 260 259 263 266 270 279 291 309 321 318 317 317 305 305 300 278 268 263 259 257 250 238 229 223 220 217 216 217 213 204 205 210 211 210 213 216 213 208 205 205 207 210 212 211 212 218 225 231
295 292 292 293 294 296 299 300 301 302 303 304 304 304 302 302 302 306 307 302 301 304 305 307 307 305 307 302 291 287 288 290 285 277 274 271 264 262 263 262 260 262 267 270 270 278 296 309 309 308 308 301 294 289 275 260 251 249 249 245 241 238 232 227 223 217 213 213 209 206 208 210 210 212 214 211 207 207 207 209 212 214 215 214 215 220 222
293 291 291 291 293 295 296 297 298 299 300 301 302 301 299 298 298 301 299 294 296 300 300 303 304 305 308 300 291 292 292 288 280 269 266 274 276 270 266 265 262 262 268 270 268 273 288 300 303 300 296 294 293 289 282 268 255 251 251 246 241 241 236 231 229 223 216 216 215 209 207 209 209 210 211 209 208 207 207 210 212 214 216 215 212 210 209
290 289 290 290 291 292 293 294 294 295 297 299 299 298 296 294 293 293 289 287 291 294 294 296 297 298 295 286 285 289 286 284 284 279 274 276 280 279 273 270 267 265 268 271 274 278 285 293 299 297 289 289 290 287 285 280 269 256 253 250 247 248 243 233 231 229 225 224 219 209 206 208 208 209 209 207 208 209 208 209 212 212 214 214 210 206 206
288 287 288 289 289 290 290 291 291 292 294 296 296 294 292 292 289 285 283 283 286 288 288 291 292 291 286 280 279 280 279 282 288 285 277 273 278 282 280 276 273 269 269 272 277 284 288 294 299 295 288 289 289 287 285 282 276 264 253 249 247 250 250 240 234 232 232 231 223 210 206 208 208 208 208 207 208 210 209 210 211 211 212 215 213 211 211
285 285 286 287 287 288 287 288 288 288 291 293 293 290 288 289 287 282 280 280 282 282 283 285 287 285 282 278 275 274 276 279 277 272 270 271 274 280 285 287 281 273 270 271 274 279 286 294 296 291 290 292 289 287 283 278 276 268 253 245 243 245 249 247 241 237 237 237 233 222 213 210 210 210 208 207 208 210 209 209 211 211 212 214 216 216 216
284 284 285 285 286 285 285 286 286 285 287 289 289 286 284 285 284 281 278 277 276 277 279 280 279 278 278 275 273 273 278 280 278 275 274 273 274 281 290 293 291 283 277 275 270 268 273 283 288 288 293 292 284 283 283 280 276 263 248 240 237 241 247 250 247 242 238 239 240 236 225 215 212 211 210 207 207 209 209 208 210 211 211 211 213 216 217
283 283 283 284 284 283 284 285 284 283 282 283 284 283 282 282 281 279 276 272 271 273 276 275 272 273 274 272 270 272 277 281 283 285 286 282 281 290 295 294 295 293 286 283 276 268 265 271 281 291 294 284 276 279 290 293 274 251 244 239 230 235 247 252 253 250 244 242 242 243 241 229 217 212 211 209 206 205 206 207 207 208 208 208 209 212 215
282 282 282 282 282 282 283 284 284 282 279 278 277 278 280 281 279 277 274 270 268 269 271 271 269 270 272 269 268 270 271 274 277 282 290 292 290 297 302 299 298 293 286 282 277 268 263 266 274 284 285 275 270 272 289 307 284 251 247 243 234 238 248 251 253 254 252 249 247 246 248 245 228 215 212 213 208 202 202 205 205 206 207 208 209 210 213
280 281 281 281 280 281 281 282 283 283 279 275 273 274 277 279 278 276 273 269 266 265 266 267 265 267 269 268 268 267 265 268 273 275 283 291 293 297 302 297 292 288 284 281 277 267 259 263 268 272 273 270 264 262 272 288 284 261 252 250 248 250 254 255 254 255 254 253 251 250 249 248 239 222 216 217 212 203 202 205 206 206 207 209 211 212 213
279 279 279 278 279 279 279 279 280 281 280 276 272 272 275 277 277 275 273 269 265 263 263 264 262 263 265 266 267 266 262 263 270 272 275 282 287 291 294 289 282 280 279 280 279 267 253 258 264 264 263 265 261 258 265 273 270 261 257 259 260 258 259 260 255 253 256 255 253 254 250 245 242 231 222 221 216 207 205 208 208 207 209 210 212 214 214
278 279 278 277 277 277 277 276 277 278 279 277 275 273 273 275 275 273 272 269 265 262 260 261 261 260 262 264 263 263 261 259 263 268 270 271 273 279 287 288 283 280 280 280 275 259 249 256 264 262 261 269 268 260 261 268 266 259 258 263 266 263 262 264 258 251 254 256 254 253 251 245 241 236 229 225 220 211 208 211 210 208 209 212 214 217 219
278 279 278 277 277 276 274 274 274 276 276 276 275 274 273 274 273 271 270 267 264 262 260 259 259 259 259 261 260 259 259 257 257 260 263 263 265 272 281 283 281 282 284 280 267 252 249 258 264 264 262 270 274 266 259 263 265 260 260 262 264 266 268 270 266 255 251 254 254 252 251 246 241 239 235 231 223 214 209 211 212 210 211 213 215 219 224
276 276 276 277 276 275 273 273 273 273 274 274 274 274 273 273 272 270 269 266 263 261 258 257 258 258 256 256 255 256 256 254 252 254 257 258 260 269 277 279 282 287 285 271 256 247 250 258 263 263 261 265 275 273 263 262 264 264 267 267 266 269 272 272 270 260 252 252 253 253 250 243 240 240 239 236 228 217 211 210 212 213 214 216 217 221 225
274 274 273 273 274 273 272 272 272 272 272 272 273 272 271 271 271 269 268 266 264 261 258 256 256 257 255 252 250 251 252 251 250 253 256 257 259 268 277 281 288 291 280 258 246 243 246 255 262 264 262 265 276 279 270 265 267 269 271 271 267 262 261 264 264 259 252 250 251 251 248 240 238 241 240 237 233 223 214 211 214 217 219 220 220 222 226
273 272 272 271 271 271 271 271 270 270 270 271 270 270 270 270 269 269 267 266 264 262 259 256 254 254 253 249 247 247 248 248 249 252 256 258 262 268 274 279 289 295 281 253 244 244 246 251 258 261 258 260 268 274 271 270 273 274 272 273 272 267 263 266 269 266 257 251 250 249 245 236 233 237 238 235 234 228 219 215 216 219 222 224 225 226 230
273 272 271 271 270 269 269 269 269 269 269 269 268 268 268 268 269 269 268 265 263 260 258 253 250 250 249 246 244 243 244 246 247 250 254 257 261 266 271 274 282 293 291 265 248 246 249 252 255 255 252 251 256 263 269 274 279 278 274 275 280 283 282 276 274 274 267 257 253 253 248 235 225 227 233 233 233 232 224 218 217 220 224 227 229 231 233
272 271 271 270 269 268 268 268 267 268 267 267 267 267 268 269 270 269 269 266 262 259 256 252 248 246 245 242 241 240 241 244 246 248 251 254 258 263 267 269 273 285 296 285 260 248 249 253 256 253 249 247 247 251 262 275 282 280 277 277 280 281 280 274 269 270 268 256 251 253 252 242 226 222 228 232 232 233 229 221 219 221 225 229 231 233 235
271 270 270 269 268 268 267 267 266 266 267 267 268 268 269 271 272 271 270 267 262 257 255 252 249 247 244 241 240 239 238 241 245 247 249 251 254 259 263 265 265 275 288 286 266 249 248 252 255 253 249 247 249 252 258 267 275 281 284 286 284 279 274 268 260 255 253 248 243 243 245 242 231 222 223 228 229 230 231 226 223 223 226 229 233 235 237
269 269 269 269 268 268 267 267 266 266 267 269 270 272 272 273 273 272 269 265 260 255 253 252 250 248 244 240 239 239 238 239 242 245 247 249 253 257 261 262 262 269 278 278 262 249 248 251 254 254 250 247 248 249 253 259 269 277 282 287 290 289 277 264 256 247 239 235 231 231 231 231 226 217 215 220 224 225 226 227 226 226 228 231 235 238 240
268 268 268 268 268 268 267 267 266 266 268 271 273 275 275 274 273 272 268 264 259 253 251 250 248 245 242 238 239 240 239 238 240 244 246 249 252 256 259 259 259 265 273 271 256 246 246 248 249 250 248 245 242 242 246 252 260 267 273 279 289 297 290 268 254 246 236 227 223 223 223 221 217 210 206 209 214 219 222 224 225 225 227 230 234 238 240
266 267 267 267 268 268 267 267 267 268 271 274 276 277 276 274 272 271 268 265 260 254 250 249 246 243 240 236 236 238 239 239 241 244 246 247 250 253 255 255 255 260 268 268 254 243 241 242 239 240 241 241 240 241 242 245 250 257 264 272 278 286 289 275 254 240 233 229 224 221 221 219 213 207 202 200 204 211 216 220 223 224 224 226 229 233 237
265 266 266 267 267 267 266 267 269 271 273 275 276 276 275 273 271 270 268 265 260 255 250 247 245 242 238 235 235 237 239 241 241 243 244 246 248 250 251 251 252 257 262 263 254 241 237 236 232 232 235 237 237 239 240 240 244 250 256 264 268 271 279 277 255 235 227 224 220 216 214 213 209 205 199 192 192 198 203 207 213 216 218 220 223 227 231
264 265 265 265 265 265 267 269 271 273 274 275 274 274 274 274 273 271 268 264 259 255 250 246 243 241 237 236 236 237 239 240 240 242 245 247 248 249 250 250 251 254 258 259 252 240 234 233 231 231 234 234 233 235 239 239 238 241 248 258 263 262 265 266 256 238 224 216 213 214 214 211 206 204 200 193 187 188 190 192 197 201 206 210 213 218 223
262 263 264 264 265 266 269 271 272 273 274 272 271 272 274 275 275 271 268 264 259 254 251 247 243 240 237 236 235 236 237 238 240 243 246 247 247 248 249 250 251 253 256 258 251 238 233 231 229 230 233 233 230 231 234 236 236 237 242 250 255 257 257 257 253 241 227 217 216 218 219 214 208 205 205 204 200 196 194 192 193 197 201 204 206 208 213
261 262 263 264 266 268 270 271 272 273 272 269 269 272 275 276 276 273 270 267 260 254 250 245 242 239 236 234 234 235 236 237 238 241 244 246 245 244 245 248 251 252 254 255 249 238 234 235 232 229 230 231 229 228 229 230 234 237 237 237 242 248 249 245 235 228 226 224 222 221 220 216 210 206 204 205 204 201 200 198 197 200 204 206 206 204 204
260 261 263 265 267 268 270 271 272 271 267 266 269 273 276 277 277 275 272 267 259 253 248 244 241 238 235 233 233 234 235 235 236 239 243 244 243 241 241 244 247 248 249 252 249 240 236 239 239 232 229 228 228 228 228 229 234 239 236 230 233 237 238 237 232 228 229 230 228 224 217 212 209 206 204 203 199 195 196 197 197 199 203 206 208 208 204
259 261 262 264 266 268 270 271 270 265 263 266 271 275 277 278 277 275 272 266 258 250 244 243 242 237 231 230 232 234 235 235 235 236 240 242 240 238 239 242 244 246 246 246 247 241 235 235 237 235 231 230 228 228 229 229 232 237 234 228 228 226 224 226 226 225 225 226 228 228 221 210 207 205 201 200 198 195 196 197 196 197 201 207 211 213 212
259 260 262 263 266 268 270 268 264 262 264 269 274 277 278 278 277 275 273 268 259 248 241 242 243 238 229 228 231 232 233 235 234 234 238 240 239 237 239 241 245 248 246 240 239 239 235 230 231 233 233 232 230 229 228 226 228 230 228 224 221 214 209 215 218 215 216 219 224 228 222 212 209 206 200 196 196 195 195 194 193 192 194 198 205 209 212
258 259 261 263 266 267 266 262 260 261 266 271 276 278 278 277 276 274 272 268 260 249 241 240 242 240 233 227 228 230 232 234 234 232 234 237 238 238 240 241 244 248 246 238 233 235 235 231 229 230 230 230 229 229 226 224 224 224 222 223 222 216 215 220 221 218 217 218 220 221 218 215 215 212 202 193 192 193 192 189 189 189 187 188 195 202 208
257 258 260 264 265 264 260 257 258 263 268 273 276 278 277 275 273 270 268 265 259 251 243 237 236 237 234 229 226 227 230 234 235 234 235 238 238 238 240 241 243 246 246 238 231 232 234 233 231 230 228 226 228 229 226 221 219 218 219 222 225 225 224 224 222 219 218 216 214 214 214 215 217 213 201 191 188 188 187 186 186 185 183 185 190 196 203
256 258 261 262 261 258 256 256 260 265 270 273 276 276 275 274 271 269 266 263 258 250 242 236 234 234 232 228 225 225 228 232 235 237 239 242 241 240 240 241 242 245 245 237 230 231 233 233 232 231 229 226 228 231 228 220 214 213 214 218 222 222 221 220 219 220 218 215 214 215 215 215 215 209 202 199 196 191 188 188 188 187 189 196 203 209 216
255 258 260 259 256 254 254 257 262 266 270 273 274 274 273 272 271 269 266 262 257 249 240 234 232 231 229 226 223 223 226 230 234 238 242 244 243 241 240 240 241 243 241 233 229 232 235 234 232 231 229 227 228 230 229 222 215 213 213 215 218 219 220 219 218 218 218 215 214 214 215 216 214 208 205 206 207 202 198 196 197 201 208 214 221 228 234
256 258 257 254 252 252 255 259 263 267 270 272 272 272 271 271 270 267 263 259 254 247 239 231 227 226 225 224 223 223 225 230 235 238 239 241 240 238 238 240 242 242 237 231 231 234 236 234 232 230 228 225 225 226 226 222 216 214 214 216 219 222 223 224 224 225 225 222 217 214 214 213 210 206 205 207 209 210 210 208 210 218 226 234 241 246 251
255 255 252 251 251 253 256 260 264 267 269 270 269 268 268 268 267 265 261 256 248 241 236 230 226 223 221 221 224 226 228 232 237 235 232 233 234 233 235 239 241 237 231 228 231 235 236 234 231 228 225 222 221 223 225 222 217 214 214 217 220 223 225 228 233 237 239 236 229 222 218 215 211 209 209 208 208 212 216 219 222 229 237 245 253 261 269
253 251 249 250 252 255 258 262 264 266 266 265 265 266 265 265 263 260 256 251 243 236 232 229 226 225 221 219 224 229 231 233 235 231 226 227 229 230 233 235 233 229 227 227 229 233 234 232 229 227 224 219 217 220 224 223 218 215 216 217 219 221 224 230 236 242 246 248 242 233 226 222 217 214 214 215 215 216 220 224 230 238 247 254 263 271 278
249 248 248 251 255 258 261 263 263 263 262 261 262 263 263 261 258 253 248 243 238 235 232 229 228 228 224 220 223 228 229 230 230 227 225 227 228 228 229 228 224 225 227 226 225 229 231 230 228 226 222 217 216 218 221 221 217 215 215 217 218 220 224 229 236 242 247 248 245 241 236 233 228 223 222 224 225 227 229 233 241 249 258 267 275 280 283
246 247 250 254 257 259 261 261 260 259 259 260 260 259 257 256 253 249 244 240 236 234 233 230 230 231 229 226 225 225 225 227 228 227 227 229 230 226 223 220 219 223 225 224 223 228 231 230 228 225 220 215 215 218 220 220 218 215 214 215 217 220 224 229 235 241 246 246 246 244 242 240 237 234 232 233 235 238 241 244 247 254 262 271 277 280 281
245 248 252 255 257 258 257 257 257 258 259 259 258 255 252 250 249 247 246 243 241 240 238 236 236 235 231 229 229 228 225 226 227 226 225 227 228 225 223 221 220 221 222 223 226 230 231 230 229 225 219 215 215 218 219 219 218 215 214 214 217 220 225 230 235 240 244 245 244 241 239 237 236 236 237 238 239 242 245 249 253 258 264 269 272 274 275
246 250 253 255 255 256 255 256 257 258 259 259 257 254 250 248 247 249 250 250 251 249 245 243 241 238 233 230 229 229 227 227 226 224 222 223 223 221 220 221 221 220 219 222 227 230 231 230 228 223 218 213 213 216 218 218 217 215 214 215 217 221 226 231 235 240 244 244 241 238 235 235 235 237 240 243 245 248 251 256 260 265 268 269 269 270 273
247 250 252 252 252 253 254 256 257 258 259 258 256 253 251 249 250 251 252 253 254 252 249 246 243 239 235 231 230 228 228 227 226 222 218 218 220 220 218 217 220 222 221 222 226 230 231 231 226 220 215 212 212 214 216 217 217 216 215 216 218 222 227 232 237 242 245 246 242 239 237 238 240 243 245 248 252 255 259 263 266 269 271 272 272 274 276
248 249 249 249 249 251 253 256 257 258 258 257 256 253 251 250 251 252 253 254 255 253 249 245 241 237 232 229 226 225 224 223 223 221 217 214 217 219 216 214 216 221 221 222 227 229 229 226 221 215 213 213 212 212 214 215 216 216 216 217 220 223 228 233 238 243 246 245 243 242 242 243 245 248 250 253 256 260 263 266 269 272 273 275 276 277 279
246 246 246 247 250 252 254 256 257 257 256 255 253 251 250 250 252 253 254 254 252 248 243 238 235 232 230 226 223 222 220 218 217 221 221 217 214 214 213 212 215 220 221 223 227 227 224 218 211 210 212 212 210 210 211 213 214 216 217 218 221 224 229 233 238 241 243 244 243 244 245 247 250 253 255 258 261 263 266 269 272 274 275 276 276 277 279
243 243 244 248 251 253 255 255 254 253 251 250 249 249 251 252 253 253 253 252 248 242 236 231 225 220 220 220 220 219 218 213 209 212 217 215 209 206 208 212 216 218 219 221 223 223 219 212 207 210 213 212 209 209 210 211 213 215 216 218 220 224 228 232 235 238 241 243 245 247 249 251 254 256 258 259 261 264 267 270 273 274 274 275 276 277 279
238 240 244 248 252 254 253 252 250 248 247 248 250 252 253 253 252 250 249 246 238 228 223 223 221 217 217 217 215 212 211 207 203 201 203 204 202 203 209 216 218 216 216 218 220 218 213 207 207 211 214 212 209 209 209 210 212 214 215 216 218 221 224 228 231 235 239 243 248 251 253 255 256 258 259 261 264 267 269 271 272 273 274 275 277 278 279
235 239 244 248 250 251 250 249 250 250 249 250 250 249 248 250 249 243 230 214 202 198 200 209 218 221 219 215 209 203 200 198 196 192 190 194 200 207 214 218 216 214 214 215 212 208 204 204 207 211 212 211 209 208 207 208 211 213 213 214 217 220 223 225 228 232 236 242 248 253 256 258 259 261 264 266 268 270 272 273 274 276 278 279 280 281 282
234 239 243 246 248 249 249 251 252 250 246 243 240 234 228 223 221 215 201 184 178 182 188 189 193 196 196 197 198 196 193 192 192 191 190 193 200 207 211 212 210 211 211 208 202 201 203 205 206 208 210 209 208 207 207 208 209 210 212 215 218 220 222 224 227 232 238 243 248 252 255 258 261 265 268 270 272 274 277 279 281 282 283 283 284 285 287
233 237 240 243 247 249 248 244 237 228 223 219 213 201 188 177 177 183 185 176 170 173 175 172 173 178 181 184 189 192 192 193 194 194 194 194 197 201 205 207 206 205 203 202 201 202 204 204 203 205 207 207 206 206 207 208 209 210 213 216 218 219 222 226 231 237 244 249 252 254 258 261 265 268 270 272 275 278 281 283 284 284 284 285 287 289 291
232 235 238 241 243 241 233 222 212 207 203 196 185 178 175 174 174 176 178 175 170 168 166 166 170 175 178 179 183 188 192 195 197 197 197 197 199 203 207 208 204 199 199 201 202 203 203 201 201 203 204 203 204 206 207 208 209 212 214 216 218 220 224 231 238 245 249 253 257 260 264 266 268 270 272 275 278 281 282 283 283 284 286 288 291 293 293
230 233 234 234 230 222 213 206 200 192 185 177 172 173 176 178 178 175 172 172 173 172 167 165 169 176 182 186 187 186 189 194 197 198 198 201 204 206 206 204 201 198 197 197 197 197 199 202 203 203 202 202 204 206 207 208 210 212 214 216 219 223 229 237 244 248 252 256 260 263 266 268 270 272 276 279 281 282 282 282 283 286 289 292 294 294 294
228 227 225 221 214 206 201 197 190 181 172 168 169 174 177 179 179 176 172 173 177 179 178 177 178 181 188 195 195 191 191 195 196 196 198 201 202 199 197 198 197 195 193 191 191 192 196 200 202 202 201 202 204 205 207 209 210 212 214 217 222 227 234 240 244 248 252 257 261 264 267 270 273 276 279 281 281 282 282 283 285 288 290 293 293 294 294
222 219 215 210 204 198 195 191 185 178 172 167 168 172 176 178 182 184 183 182 182 182 183 187 189 189 191 194 193 192 195 198 197 195 195 196 192 191 193 195 194 190 189 189 191 192 195 199 201 202 203 203 204 205 207 208 210 212 216 221 226 231 235 239 244 249 256 261 265 268 271 273 276 279 281 282 282 282 282 283 285 288 290 292 293 293 294
Height
5850 5849 5848 5847 5846 5846 5844 5843 5842 5842 5841 5841 5840 5839 5837 5835 5834 5834 5833 5832 5831 5829 5828 5827 5826 5825 5825 5825 5825 5824 5823 5822 5821 5821 5820 5819 5818 5818 5818 5818 5818 5818 5818 5818 5818 5818 5817 5817 5817 5816 5816 5816 5816 5815 5815 5815 5814 5814 5814 5814 5814 5815 5815 5816 5816 5816 5817 5817 5818 5820 5822 5825 5828 5829 5831 5834 5837 5838 5840 5844 5846 5847 5849 5851 5853 5855 5856
5847 5846 5845 5844 5843 5842 5842 5840 5839 5839 5838 5838 5837 5836 5835 5833 5831 5831 5830 5829 5828 5827 5826 5825 5824 5823 5823 5823 5823 5822 5821 5821 5820 5820 5819 5818 5817 5816 5816 5815 5816 5815 5815 5816 5817 5817 5817 5816 5816 5815 5815 5814 5814 5814 5813 5813 5813 5812 5812 5812 5812 5812 5812 5813 5814 5814 5815 5815 5816 5818 5821 5823 5825 5827 5829 5832 5835 5837 5839 5842 5844 5846 5848 5849 5852 5853 5855
5843 5842 5842 5841 5840 5839 5838 5837 5836 5835 5835 5834 5834 5833 5832 5831 5829 5829 5828 5826 5826 5825 5824 5823 5823 5822 5822 5822 5820 5819 5819 5819 5819 5818 5817 5816 5815 5815 5814 5813 5813 5813 5813 5814 5815 5815 5816 5815 5815 5814 5813 5813 5812 5812 5811 5811 5811 5810 5810 5810 5810 5810 5809 5810 5811 5812 5812 5812 5813 5816 5818 5820 5823 5825 5828 5830 5833 5835 5838 5840 5843 5845 5846 5848 5850 5851 5853
5839 5838 5838 5837 5836 5835 5835 5834 5833 5832 5831 5831 5830 5830 5829 5829 5828 5826 5825 5824 5823 5823 5822 5822 5821 5821 5820 5819 5818 5817 5817 5817 5816 5816 5815 5814 5813 5812 5811 5811 5811 5811 5810 5811 5812 5814 5815 5814 5813 5813 5812 5811 5810 5810 5809 5808 5808 5808 5808 5808 5808 5807 5807 5807 5808 5809 5810 5810 5811 5813 5815 5818 5820 5823 5825 5828 5830 5833 5835 5838 5840 5842 5844 5845 5847 5849 5850
5835 5834 5834 5833 5832 5831 5831 5830 5829 5828 5828 5828 5827 5826 5826 5826 5825 5824 5822 5821 5821 5820 5820 5819 5819 5818 5818 5817 5816 5815 5814 5814 5813 5813 5812 5812 5810 5810 5810 5810 5810 5810 5809 5809 5810 5811 5813 5813 5812 5811 5810 5810 5809 5808 5806 5805 5805 5806 5806 5805 5806 5806 5805 5805 5805 5806 5807 5809 5810 5811 5813 5815 5817 5820 5822 5825 5828 5831 5833 5835 5837 5839 5841 5843 5844 5847 5848
5830 5830 5830 5829 5828 5827 5826 5826 5826 5825 5824 5824 5823 5822 5822 5822 5822 5821 5820 5819 5818 5817 5817 5817 5816 5815 5815 5814 5813 5812 5811 5810 5810 5810 5810 5810 5809 5808 5808 5808 5809 5808 5808 5808 5809 5809 5810 5810 5810 5809 5808 5808 5807 5806 5804 5803 5802 5803 5803 5803 5803 5804 5803 5803 5803 5804 5805 5807 5808 5810 5811 5813 5815 5817 5819 5822 5825 5828 5830 5832 5834 5837 5839 5840 5842 5844 5846
5826 5825 5825 5825 5824 5823 5822 5822 5821 5821 5821 5820 5819 5818 5818 5818 5818 5818 5817 5816 5815 5814 5814 5814 5813 5812 5812 5812 5811 5810 5808 5807 5807 5807 5808 5808 5807 5807 5807 5806 5806 5807 5806 5807 5807 5807 5808 5808 5807 5807 5807 5806 5805 5804 5802 5800 5800 5800 5800 5800 5802 5802 5802 5801 5801 5802 5804 5805 5806 5807 5809 5810 5812 5814 5817 5819 5822 5825 5827 5830 5832 5834 5836 5838 5840 5842 5844
5821 5820 5820 5820 5819 5818 5817 5817 5817 5816 5816 5816 5816 5815 5814 5814 5814 5814 5813 5813 5811 5810 5810 5811 5810 5808 5809 5809 5808 5808 5807 5806 5805 5805 5805 5806 5805 5805 5805 5804 5804 5805 5805 5805 5805 5805 5805 5805 5805 5804 5805 5804 5803 5802 5801 5799 5799 5798 5798 5799 5800 5801 5801 5800 5800 5801 5801 5802 5803 5804 5806 5808 5810 5812 5815 5817 5820 5823 5825 5826 5829 5831 5834 5836 5838 5839 5841
5816 5815 5815 5815 5815 5814 5813 5812 5812 5812 5812 5812 5811 5811 5810 5810 5810 5810 5810 5809 5808 5807 5806 5807 5806 5805 5805 5806 5805 5806 5805 5804 5804 5803 5803 5803 5803 5803 5803 5802 5802 5802 5802 5802 5803 5803 5804 5804 5803 5803 5803 5803 5802 5801 5800 5799 5798 5798 5798 5799 5799 5799 5799 5800 5799 5799 5799 5800 5801 5802 5804 5806 5807 5810 5812 5814 5816 5819 5821 5823 5826 5828 5831 5833 5835 5837 5838
5810 5810 5810 5810 5810 5809 5808 5807 5807 5807 5807 5807 5807 5807 5806 5806 5806 5805 5806 5805 5804 5803 5803 5803 5803 5802 5802 5802 5802 5803 5803 5802 5801 5801 5801 5801 5801 5801 5802 5801 5800 5800 5800 5799 5800 5801 5802 5802 5801 5801 5801 5801 5801 5799 5799 5798 5798 5798 5798 5798 5798 5798 5798 5799 5799 5798 5797 5797 5799 5800 5802 5804 5805 5807 5810 5812 5813 5815 5817 5820 5823 5825 5828 5831 5832 5834 5836
5804 5804 5804 5804 5804 5804 5803 5803 5802 5802 5802 5803 5803 5802 5802 5802 5801 5801 5801 5801 5801 5800 5799 5799 5799 5799 5798 5799 5799 5799 5799 5799 5798 5798 5799 5800 5799 5799 5799 5800 5799 5799 5798 5798 5798 5799 5800 5799 5799 5799 5800 5799 5799 5798 5798 5798 5797 5797 5797 5797 5797 5797 5797 5797 5798 5797 5795 5795 5796 5798 5800 5801 5803 5805 5807 5809 5810 5812 5814 5816 5819 5823 5826 5828 5829 5832 5834
5799 5799 5799 5799 5799 5799 5799 5798 5798 5797 5798 5798 5798 5798 5798 5797 5797 5797 5798 5797 5796 5796 5795 5795 5795 5795 5795 5795 5795 5795 5796 5796 5796 5796 5797 5797 5798 5797 5797 5798 5797 5797 5797 5796 5796 5797 5797 5797 5797 5797 5798 5798 5797 5797 5797 5796 5796 5796 5796 5796 5796 5796 5796 5796 5796 5796 5795 5793 5794 5795 5797 5799 5801 5803 5804 5805 5807 5809 5811 5813 5816 5820 5823 5825 5827 5829 5831
5794 5793 5793 5793 5793 5794 5794 5793 5793 5793 5793 5793 5793 5794 5793 5793 5793 5793 5793 5793 5792 5791 5791 5790 5790 5791 5792 5792 5792 5791 5792 5794 5794 5794 5794 5795 5795 5796 5796 5795 5795 5795 5795 5795 5794 5795 5795 5795 5795 5796 5796 5796 5796 5796 5795 5795 5795 5795 5795 5795 5795 5795 5794 5794 5794 5794 5793 5792 5792 5793 5795 5797 5799 5800 5801 5803 5804 5806 5808 5811 5814 5816 5819 5822 5824 5827 5828
5788 5788 5788 5788 5788 5788 5788 5788 5788 5788 5787 5788 5788 5789 5789 5788 5789 5789 5789 5789 5788 5787 5786 5786 5786 5787 5788 5788 5788 5787 5788 5791 5792 5792 5792 5792 5793 5793 5793 5793 5793 5793 5793 5792 5792 5792 5793 5793 5794 5794 5794 5794 5794 5794 5794 5793 5793 5793 5793 5794 5794 5793 5793 5793 5793 5792 5792 5791 5791 5791 5793 5795 5796 5797 5799 5801 5802 5804 5806 5809 5811 5814 5816 5819 5822 5824 5826
5782 5782 5783 5783 5783 5783 5783 5783 5783 5782 5782 5782 5783 5784 5784 5784 5784 5785 5785 5785 5784 5783 5782 5782 5783 5783 5784 5785 5784 5784 5785 5787 5788 5789 5788 5789 5789 5790 5791 5791 5791 5791 5791 5790 5790 5790 5791 5791 5792 5792 5792 5792 5792 5792 5792 5792 5791 5792 5792 5792 5792 5792 5791 5791 5791 5791 5790 5790 5789 5790 5791 5792 5794 5795 5797 5799 5800 5801 5804 5806 5808 5811 5813 5816 5819 5822 5824
5776 5777 5777 5777 5778 5778 5778 5778 5778 5777 5777 5777 5778 5779 5779 5779 5779 5780 5780 5781 5780 5779 5777 5778 5779 5779 5780 5781 5781 5780 5781 5783 5785 5785 5785 5785 5785 5787 5788 5789 5789 5789 5789 5789 5788 5788 5789 5789 5790 5791 5791 5791 5791 5791 5790 5790 5790 5791 5791 5791 5790 5790 5790 5790 5789 5789 5789 5788 5788 5788 5789 5791 5792 5793 5794 5796 5797 5799 5801 5803 5806 5808 5810 5813 5816 5819 5821
5771 5771 5771 5772 5772 5772 5773 5773 5773 5772 5771 5772 5772 5774 5775 5774 5775 5775 5775 5776 5776 5774 5772 5773 5774 5775 5776 5777 5776 5776 5777 5779 5781 5782 5782 5781 5782 5783 5784 5786 5787 5787 5787 5787 5787 5787 5787 5787 5789 5789 5789 5789 5789 5789 5789 5789 5789 5789 5789 5789 5789 5789 5789 5788 5788 5788 5788 5788 5787 5787 5788 5789 5791 5791 5792 5794 5795 5797 5799 5801 5804 5806 5808 5810 5813 5816 5818
5765 5765 5765 5766 5766 5767 5767 5768 5767 5767 5766 5766 5767 5768 5770 5770 5769 5770 5770 5770 5771 5769 5766 5768 5770 5770 5771 5772 5771 5772 5773 5775 5777 5779 5779 5778 5779 5780 5781 5783 5784 5784 5784 5784 5784 5784 5785 5786 5787 5788 5788 5787 5788 5788 5788 5788 5788 5788 5788 5788 5788 5788 5788 5787 5787 5786 5786 5787 5786 5786 5787 5788 5789 5790 5791 5792 5794 5795 5797 5799 5801 5804 5806 5808 5810 5813 5815
5760 5760 5760 5761 5761 5762 5762 5762 5762 5762 5761 5761 5761 5763 5765 5765 5764 5764 5764 5765 5765 5763 5761 5763 5766 5766 5767 5768 5767 5767 5769 5771 5773 5775 5775 5775 5775 5776 5778 5780 5781 5782 5783 5782 5782 5782 5783 5783 5785 5785 5786 5786 5786 5786 5786 5787 5786 5786 5786 5787 5786 5787 5786 5786 5786 5785 5785 5785 5785 5785 5786 5786 5788 5789 5790 5790 5792 5794 5795 5797 5799 5802 5804 5806 5808 5810 5813
5755 5755 5755 5755 5756 5757 5757 5757 5758 5757 5756 5756 5756 5757 5759 5759 5758 5758 5759 5759 5760 5758 5756 5758 5761 5762 5764 5764 5763 5763 5765 5768 5769 5770 5771 5771 5771 5772 5775 5777 5778 5779 5780 5780 5779 5779 5780 5781 5782 5783 5784 5784 5784 5784 5785 5785 5785 5785 5785 5785 5785 5785 5785 5785 5785 5784 5784 5784 5784 5784 5784 5785 5786 5788 5788 5789 5791 5793 5794 5796 5797 5800 5802 5804 5806 5808 5810
5750 5750 5750 5750 5751 5752 5753 5753 5753 5753 5752 5751 5750 5751 5753 5754 5753 5753 5753 5753 5754 5753 5751 5753 5756 5757 5759 5760 5759 5759 5761 5763 5765 5766 5767 5767 5768 5769 5772 5774 5775 5776 5777 5777 5777 5777 5778 5779 5780 5781 5781 5781 5782 5782 5783 5783 5784 5784 5784 5784 5784 5784 5784 5784 5783 5783 5783 5783 5783 5783 5783 5784 5785 5786 5787 5788 5790 5791 5793 5794 5796 5798 5800 5802 5804 5806 5808
5745 5745 5745 5746 5746 5747 5748 5748 5748 5748 5747 5746 5745 5745 5747 5748 5748 5748 5747 5747 5748 5747 5747 5748 5750 5752 5754 5756 5754 5754 5755 5759 5762 5764 5764 5764 5764 5766 5769 5771 5772 5773 5774 5774 5775 5775 5775 5776 5777 5778 5779 5779 5779 5780 5781 5781 5782 5783 5783 5783 5783 5783 5783 5783 5782 5782 5782 5782 5782 5782 5782 5783 5784 5785 5786 5787 5789 5790 5791 5792 5794 5795 5797 5799 5801 5803 5805
5740 5740 5740 5741 5741 5742 5743 5743 5743 5743 5742 5741 5740 5740 5741 5743 5743 5743 5742 5742 5743 5743 5742 5744 5745 5748 5750 5750 5749 5750 5752 5756 5759 5760 5760 5760 5761 5763 5766 5768 5769 5770 5771 5772 5773 5773 5773 5774 5774 5775 5776 5777 5777 5778 5779 5780 5780 5781 5782 5782 5782 5782 5782 5782 5781 5781 5781 5781 5781 5781 5781 5782 5783 5784 5785 5786 5787 5788 5789 5790 5792 5793 5795 5796 5798 5800 5802
5735 5735 5736 5736 5737 5737 5738 5738 5738 5738 5737 5736 5736 5735 5736 5737 5738 5738 5737 5738 5738 5738 5738 5739 5741 5743 5744 5745 5746 5747 5749 5752 5755 5756 5756 5757 5759 5761 5764 5766 5767 5768 5768 5769 5770 5770 5771 5771 5772 5773 5774 5775 5775 5776 5777 5778 5779 5780 5780 5781 5781 5781 5781 5781 5781 5780 5780 5780 5780 5780 5780 5781 5782 5783 5784 5785 5786 5787 5788 5789 5790 5791 5793 5794 5796 5798 5800
5730 5731 5731 5732 5732 5733 5733 5734 5733 5733 5732 5732 5731 5731 5731 5732 5733 5733 5733 5733 5734 5733 5734 5735 5737 5738 5739 5741 5742 5743 5745 5748 5751 5752 5753 5754 5756 5758 5761 5763 5764 5765 5765 5766 5768 5768 5768 5768 5769 5770 5772 5772 5773 5774 5775 5775 5777 5778 5779 5779 5780 5780 5780 5780 5780 5780 5779 5779 5779 5779 5779 5780 5781 5782 5783 5784 5785 5786 5787 5788 5789 5790 5791 5792 5794 5795 5797
5725 5726 5727 5727 5728 5728 5729 5729 5728 5728 5728 5727 5727 5727 5727 5728 5728 5728 5729 5729 5730 5729 5730 5731 5731 5733 5735 5737 5737 5738 5740 5744 5747 5748 5749 5751 5753 5755 5758 5759 5760 5762 5762 5764 5765 5766 5766 5766 5767 5768 5769 5770 5771 5772 5773 5773 5774 5776 5777 5778 5778 5779 5779 5779 5780 5779 5779 5778 5778 5778 5779 5779 5780 5781 5782 5783 5783 5784 5785 5786 5788 5789 5790 5790 5792 5793 5794
5721 5721 5722 5723 5723 5724 5724 5724 5724 5724 5723 5723 5723 5724 5723 5724 5724 5724 5724 5725 5725 5725 5726 5725 5725 5728 5732 5733 5733 5734 5736 5740 5743 5745 5746 5747 5749 5752 5754 5755 5756 5758 5759 5761 5762 5763 5764 5764 5765 5766 5767 5768 5769 5770 5771 5772 5773 5774 5775 5777 5777 5777 5778 5778 5779 5779 5778 5778 5777 5777 5778 5779 5779 5780 5781 5782 5782 5783 5784 5785 5786 5787 5788 5789 5790 5791 5793
5716 5717 5718 5718 5719 5719 5719 5719 5719 5719 5719 5719 5720 5720 5720 5720 5720 5720 5720 5721 5721 5722 5722 5721 5721 5724 5728 5729 5729 5730 5733 5736 5739 5742 5742 5743 5745 5748 5750 5751 5752 5754 5756 5757 5759 5760 5761 5761 5763 5764 5765 5766 5767 5768 5769 5770 5771 5772 5773 5775 5775 5776 5777 5778 5778 5778 5778 5777 5777 5777 5777 5778 5778 5779 5780 5781 5781 5782 5783 5784 5785 5786 5787 5788 5789 5790 5791
5712 5713 5713 5714 5714 5715 5715 5715 5715 5715 5715 5715 5716 5716 5716 5716 5716 5716 5716 5717 5717 5718 5718 5717 5717 5721 5724 5725 5725 5727 5728 5731 5735 5738 5739 5740 5741 5744 5746 5748 5749 5751 5752 5754 5755 5757 5757 5758 5759 5761 5762 5764 5765 5766 5767 5768 5769 5770 5771 5772 5773 5775 5776 5777 5778 5778 5777 5777 5776 5776 5777 5777 5777 5778 5779 5780 5781 5782 5783 5784 5785 5786 5787 5788 5788 5789 5790
5708 5708 5709 5710 5710 5710 5710 5711 5711 5711 5711 5711 5712 5712 5712 5712 5712 5712 5712 5712 5713 5714 5715 5715 5715 5717 5720 5721 5722 5723 5724 5726 5730 5733 5735 5736 5738 5740 5742 5744 5746 5747 5748 5750 5752 5753 5754 5755 5757 5758 5760 5761 5763 5763 5765 5766 5767 5768 5769 5770 5771 5773 5774 5775 5776 5777 5777 5777 5776 5776 5776 5776 5776 5777 5778 5779 5780 5781 5782 5783 5784 5785 5786 5787 5788 5788 5789
5703 5704 5705 5705 5706 5706 5706 5707 5707 5707 5708 5708 5708 5708 5709 5709 5709 5709 5708 5709 5710 5710 5712 5712 5713 5714 5716 5717 5719 5720 5721 5723 5726 5729 5731 5732 5734 5735 5737 5739 5741 5742 5744 5746 5747 5749 5750 5752 5754 5755 5757 5759 5760 5761 5762 5764 5765 5767 5768 5768 5769 5771 5772 5773 5775 5776 5776 5776 5776 5776 5776 5776 5776 5776 5777 5778 5779 5780 5781 5782 5783 5784 5785 5786 5787 5788 5788
5699 5700 5701 5701 5702 5702 5703 5703 5703 5704 5704 5704 5705 5705 5705 5705 5705 5705 5705 5706 5707 5707 5708 5709 5710 5711 5712 5714 5715 5717 5718 5720 5722 5725 5726 5728 5729 5731 5733 5735 5736 5738 5739 5741 5743 5745 5747 5749 5750 5752 5754 5756 5758 5759 5760 5762 5763 5765 5766 5766 5767 5769 5770 5772 5773 5774 5775 5775 5775 5775 5775 5775 5775 5776 5777 5778 5779 5780 5781 5781 5782 5783 5784 5785 5786 5787 5788
5695 5696 5697 5697 5698 5698 5699 5699 5699 5700 5700 5701 5701 5701 5701 5701 5701 5702 5702 5703 5704 5705 5705 5706 5706 5707 5708 5710 5712 5713 5715 5717 5719 5721 5723 5723 5724 5727 5729 5730 5732 5734 5735 5737 5739 5740 5742 5744 5747 5748 5751 5753 5755 5756 5758 5760 5761 5762 5763 5764 5765 5767 5768 5770 5771 5772 5773 5774 5774 5774 5774 5774 5775 5776 5777 5777 5778 5779 5780 5781 5781 5782 5783 5784 5785 5785 5786
5691 5692 5693 5693 5694 5694 5695 5695 5696 5696 5697 5698 5698 5697 5697 5697 5698 5698 5699 5700 5701 5701 5702 5703 5704 5704 5705 5707 5709 5710 5712 5714 5715 5718 5719 5719 5720 5723 5725 5726 5728 5730 5732 5734 5735 5736 5738 5741 5743 5744 5747 5750 5752 5754 5755 5757 5759 5760 5761 5762 5763 5764 5766 5767 5769 5770 5771 5772 5773 5773 5773 5773 5774 5775 5775 5776 5777 5778 5779 5779 5780 5781 5781 5782 5782 5783 5783
5687 5688 5689 5690 5690 5691 5691 5692 5692 5693 5694 5694 5694 5694 5693 5694 5694 5695 5695 5696 5697 5698 5699 5700 5701 5701 5703 5705 5706 5706 5708 5711 5712 5714 5715 5715 5717 5720 5722 5723 5725 5727 5729 5731 5732 5733 5735 5737 5739 5741 5744 5746 5749 5751 5753 5755 5756 5758 5759 5760 5761 5762 5764 5765 5766 5767 5768 5770 5771 5771 5772 5772 5773 5773 5774 5775 5776 5776 5777 5778 5779 5779 5779 5780 5780 5780 5781
5683 5684 5685 5686 5686 5687 5688 5688 5689 5690 5690 5691 5690 5690 5690 5691 5691 5692 5692 5693 5694 5695 5696 5697 5698 5699 5700 5702 5703 5703 5706 5708 5709 5710 5712 5713 5715 5718 5719 5720 5722 5724 5726 5728 5730 5730 5732 5734 5736 5738 5740 5744 5747 5749 5751 5752 5754 5755 5757 5758 5759 5760 5762 5763 5764 5765 5766 5767 5768 5769 5769 5770 5771 5771 5772 5773 5774 5775 5775 5776 5776 5777 5777 5777 5777 5777 5778
5680 5681 5682 5682 5683 5684 5684 5685 5686 5686 5686 5687 5687 5687 5687 5687 5688 5689 5689 5690 5691 5692 5694 5695 5696 5696 5697 5699 5700 5701 5703 5704 5705 5707 5709 5711 5713 5715 5716 5718 5720 5722 5724 5726 5727 5727 5729 5731 5733 5735 5738 5741 5744 5746 5747 5749 5751 5753 5754 5756 5757 5758 5759 5760 5761 5762 5764 5765 5766 5766 5767 5768 5768 5769 5770 5770 5771 5772 5772 5773 5773 5774 5774 5774 5774 5774 5774
5676 5677 5678 5679 5680 5681 5681 5681 5682 5682 5682 5683 5683 5683 5684 5684 5685 5686 5687 5688 5689 5690 5691 5692 5692 5693 5695 5696 5697 5698 5700 5701 5702 5705 5707 5708 5710 5712 5713 5715 5717 5719 5721 5723 5724 5725 5727 5728 5730 5732 5735 5738 5741 5742 5744 5747 5749 5750 5752 5753 5755 5756 5757 5758 5759 5760 5761 5762 5763 5764 5764 5765 5765 5766 5767 5768 5768 5769 5769 5770 5771 5771 5771 5771 5771 5771 5771
5673 5674 5675 5676 5676 5677 5677 5678 5678 5678 5679 5679 5680 5680 5680 5681 5682 5683 5684 5685 5686 5687 5688 5689 5689 5690 5692 5693 5693 5694 5696 5697 5699 5701 5703 5705 5707 5709 5711 5713 5715 5717 5719 5720 5721 5723 5724 5726 5728 5730 5733 5736 5738 5740 5742 5744 5746 5747 5749 5751 5752 5753 5755 5755 5756 5758 5759 5760 5761 5762 5762 5762 5763 5764 5765 5765 5766 5767 5767 5767 5768 5768 5769 5769 5769 5769 5769
5670 5671 5671 5672 5673 5673 5674 5674 5675 5675 5675 5675 5676 5677 5677 5678 5678 5679 5680 5681 5682 5683 5684 5685 5685 5686 5687 5688 5689 5690 5692 5693 5695 5698 5700 5702 5704 5706 5708 5710 5712 5714 5716 5718 5719 5720 5722 5724 5726 5728 5731 5734 5736 5738 5739 5741 5743 5745 5747 5748 5750 5751 5752 5753 5754 5755 5756 5757 5758 5759 5760 5760 5761 5762 5763 5763 5764 5764 5764 5765 5765 5765 5765 5765 5766 5766 5766
5667 5667 5668 5669 5669 5670 5670 5671 5671 5671 5671 5671 5672 5673 5673 5674 5675 5676 5676 5677 5677 5678 5679 5680 5680 5681 5683 5684 5685 5687 5689 5690 5692 5695 5697 5699 5701 5703 5706 5708 5710 5711 5713 5715 5716 5718 5720 5721 5724 5727 5730 5731 5733 5734 5736 5738 5740 5742 5744 5746 5747 5749 5749 5750 5751 5752 5753 5754 5755 5756 5757 5758 5759 5760 5760 5761 5761 5761 5761 5761 5761 5761 5761 5762 5761 5761 5761
5663 5664 5665 5665 5666 5666 5667 5667 5667 5668 5668 5668 5668 5669 5669 5670 5671 5672 5672 5672 5673 5674 5674 5675 5675 5676 5677 5679 5680 5682 5684 5686 5689 5692 5694 5697 5699 5700 5702 5705 5707 5709 5710 5712 5714 5716 5718 5720 5723 5726 5727 5728 5729 5731 5733 5736 5738 5740 5741 5743 5745 5746 5747 5748 5749 5749 5750 5751 5753 5753 5754 5755 5756 5757 5757 5758 5758 5758 5758 5758 5758 5758 5758 5757 5757 5757 5757
5660 5661 5662 5662 5663 5663 5663 5664 5664 5664 5664 5664 5665 5665 5666 5666 5667 5668 5668 5668 5669 5669 5670 5670 5670 5671 5673 5675 5677 5678 5680 5683 5686 5689 5692 5694 5696 5697 5699 5702 5705 5707 5708 5710 5712 5714 5716 5719 5722 5723 5723 5724 5726 5728 5731 5733 5735 5737 5739 5740 5742 5743 5744 5745 5746 5747 5748 5749 5750 5751 5752 5753 5754 5754 5754 5754 5755 5755 5755 5755 5755 5754 5754 5754 5753 5753 5753
5657 5658 5659 5659 5659 5660 5660 5660 5660 5661 5661 5661 5661 5662 5662 5663 5664 5664 5664 5665 5665 5666 5666 5666 5667 5669 5671 5672 5674 5676 5678 5681 5684 5687 5689 5691 5693 5696 5698 5701 5703 5705 5707 5709 5711 5713 5715 5717 5719 5720 5720 5722 5724 5727 5729 5731 5733 5735 5736 5738 5740 5741 5742 5743 5743 5744 5745 5746 5747 5749 5750 5750 5751 5751 5752 5752 5752 5752 5752 5752 5751 5751 5750 5750 5750 5750 5749
5654 5655 5656 5656 5656 5657 5657 5657 5657 5657 5658 5658 5659 5659 5660 5660 5661 5661 5662 5662 5663 5664 5664 5665 5666 5667 5668 5669 5671 5673 5676 5679 5682 5684 5687 5689 5692 5695 5697 5699 5701 5704 5706 5707 5709 5712 5714 5715 5716 5717 5718 5720 5723 5725 5727 5729 5730 5732 5734 5736 5737 5738 5739 5740 5741 5742 5743 5744 5745 5746 5747 5747 5748 5748 5748 5749 5749 5748 5748 5748 5748 5747 5747 5747 5746 5746 5745
5651 5652 5653 5653 5653 5654 5654 5654 5655 5655 5656 5656 5657 5657 5658 5659 5659 5660 5660 5661 5662 5663 5664 5664 5665 5666 5667 5668 5670 5671 5674 5677 5680 5682 5685 5688 5691 5693 5696 5698 5700 5702 5704 5706 5708 5710 5711 5712 5713 5714 5716 5718 5720 5723 5725 5726 5728 5730 5732 5733 5734 5735 5736 5737 5738 5740 5741 5742 5743 5743 5743 5744 5744 5744 5744 5745 5745 5745 5744 5744 5744 5744 5743 5742 5742 5741 5740
5649 5649 5650 5650 5651 5651 5651 5652 5653 5653 5654 5654 5655 5656 5657 5658 5658 5659 5660 5661 5661 5662 5663 5664 5664 5665 5666 5668 5669 5671 5673 5676 5679 5681 5684 5686 5689 5692 5695 5697 5699 5701 5703 5705 5707 5708 5708 5710 5711 5713 5715 5717 5719 5721 5723 5725 5726 5728 5729 5731 5732 5733 5734 5735 5736 5737 5739 5740 5740 5741 5741 5741 5741 5741 5741 5741 5741 5741 5741 5740 5740 5739 5738 5737 5736 5735 5735
5646 5647 5648 5648 5648 5649 5649 5650 5651 5651 5652 5653 5654 5655 5655 5656 5657 5659 5660 5661 5661 5662 5662 5663 5665 5666 5667 5669 5670 5672 5674 5676 5678 5681 5683 5686 5689 5692 5694 5696 5698 5700 5701 5703 5704 5705 5707 5709 5711 5712 5714 5716 5718 5719 5721 5723 5724 5726 5727 5729 5730 5731 5732 5733 5734 5735 5736 5737 5738 5738 5738 5738 5738 5738 5738 5738 5738 5737 5737 5736 5735 5734 5733 5732 5731 5731 5730
5644 5645 5645 5646 5646 5647 5648 5648 5649 5650 5650 5651 5652 5653 5654 5656 5657 5658 5660 5661 5661 5662 5663 5664 5665 5667 5668 5669 5670 5672 5674 5677 5679 5681 5684 5686 5689 5692 5694 5695 5697 5698 5699 5700 5702 5704 5706 5708 5709 5711 5713 5714 5716 5717 5719 5721 5722 5724 5725 5726 5728 5729 5730 5731 5732 5733 5733 5734 5734 5735 5735 5735 5735 5735 5735 5734 5734 5734 5733 5732 5731 5730 5729 5728 5727 5726 5724
5642 5643 5643 5644 5645 5645 5646 5647 5648 5649 5650 5651 5652 5652 5654 5655 5657 5658 5659 5660 5662 5663 5664 5665 5666 5667 5668 5669 5671 5672 5674 5676 5679 5682 5684 5687 5689 5691 5693 5695 5695 5696 5697 5699 5701 5703 5705 5706 5708 5710 5711 5713 5714 5716 5717 5719 5721 5722 5723 5724 5726 5727 5728 5729 5729 5730 5731 5731 5731 5732 5732 5731 5731 5731 5731 5731 5730 5729 5728 5727 5726 5725 5724 5723 5722 5721 5719
5640 5641 5642 5642 5643 5644 5645 5646 5647 5648 5650 5650 5651 5652 5654 5655 5657 5658 5659 5661 5662 5663 5664 5665 5666 5667 5668 5670 5671 5673 5675 5677 5679 5682 5684 5686 5689 5691 5692 5693 5694 5695 5696 5698 5700 5701 5703 5705 5707 5708 5710 5711 5713 5714 5716 5718 5719 5720 5721 5722 5724 5725 5725 5726 5727 5727 5728 5728 5728 5728 5728 5728 5728 5728 5727 5727 5726 5725 5724 5723 5722 5721 5720 5719 5717 5716 5715
5638 5639 5640 5641 5642 5644 5645 5646 5647 5648 5650 5651 5652 5653 5654 5656 5657 5658 5659 5660 5662 5663 5664 5665 5666 5668 5669 5671 5672 5673 5675 5677 5679 5681 5684 5686 5688 5689 5690 5691 5692 5694 5696 5697 5699 5701 5702 5704 5706 5707 5708 5710 5711 5713 5715 5716 5718 5719 5720 5721 5721 5722 5723 5724 5724 5725 5725 5725 5725 5725 5725 5725 5724 5724 5723 5723 5722 5721 5720 5719 5718 5717 5715 5714 5713 5711 5710